Location: Bruderhein
(53.8035°N, 112.9265°W)
Time: 13:39:12
(UTC+00:00)

deb Delta 139 - Pass Details

Date: 08 December 2023
Orbit: 731 x 794 km, 98.6° (Epoch: 01 March)

Event Time Altitude Azimuth Distance (km) Brightness Sun altitude
Rises 01:46:01 0° 176° (S) 3,252 ? -21.4°
Reaches altitude 10° 01:48:24 10° 181° (S) 2,320 ? -21.8°
Maximum altitude 01:53:24 55° 259° (W) 925 ? -22.5°
Drops below altitude 10° 01:58:22 10° 337° (NNW) 2,295 ? -23.2°
Sets 02:00:43 0° 342° (NNW) 3,215 ? -23.6°
